Location: Cazavet
(43.0017°N, 1.0431°E)
Time: 22:38:15
(UTC+00:00)

NOSS 8 (H) - Pass Details

Date: 18 January 2026
Orbit: 355 x 1517 km, 63.3° (Epoch: 10 February)

Event Time Altitude Azimuth Distance (km) Brightness Sun altitude
Exits shadow 05:45:47 41° 334° (NNW) 604 4.7 -17.5°
Maximum altitude 05:46:46 78° 54° (NE) 434 4.3 -17.3°
Drops below altitude 10° 05:50:24 10° 141° (SE) 1,691 8.1 -16.6°
Sets 05:52:51 0° 143° (SE) 2,738 9.2 -16.2°
